This is the latest recevied weather packets stored in our database for station/object WA4OPQ-3. If no packets are shown the sender has not sent any weather packets the latest 10 day(s).
| Time | Temp. | Humidity | Pressure | Rain* | Wind** | Luminosity | Snow |
|---|---|---|---|---|---|---|---|
| 1777810191 | 2.22° C | 99% | 1020.8 hPa | 0 mm | - | 31 W/m² | - |
| 1777809585 | 1.67° C | 99% | 1020.7 hPa | 0 mm | - | 28 W/m² | - |
| 1777808980 | 1.67° C | 99% | 1020.6 hPa | 0 mm | - | 24 W/m² | - |
| 1777808374 | 1.11° C | 99% | 1020.4 hPa | 0 mm | - | 20 W/m² | - |
| 1777807769 | 1.11° C | 99% | 1020.5 hPa | 0 mm | - | 15 W/m² | - |
| 1777807164 | 0.56° C | 99% | 1020.3 hPa | 0 mm | - | 10 W/m² | - |
| 1777806561 | 0.56° C | 99% | 1020.1 hPa | 0 mm | - | 7 W/m² | - |
| 1777805956 | 1.11° C | 99% | 1020.1 hPa | 0 mm | - | 3 W/m² | - |
| 1777805350 | 0.56° C | 99% | 1019.9 hPa | 0 mm | - | 0 W/m² | - |
| 1777804745 | 1.11° C | 99% | 1019.8 hPa | 0 mm | - | 0 W/m² | - |
| 1777804140 | 1.11° C | 99% | 1019.9 hPa | 0 mm | - | 0 W/m² | - |
| 1777803534 | 1.11° C | 99% | 1019.5 hPa | 0 mm | - | 0 W/m² | - |
| 1777802929 | 1.11° C | 99% | 1019.7 hPa | 0 mm | - | 0 W/m² | - |
| 1777802324 | 1.11° C | 99% | 1019.6 hPa | 0 mm | - | 0 W/m² | - |
| 1777801719 | 1.11° C | 99% | 1019.4 hPa | 0 mm | - | 0 W/m² | - |
| 1777801114 | 1.67° C | 99% | 1019.7 hPa | 0 mm | - | 0 W/m² | - |
| 1777800509 | 1.67° C | 99% | 1019.6 hPa | 0 mm | - | 0 W/m² | - |
| 1777799905 | 1.67° C | 99% | 1019.7 hPa | 0 mm | - | 0 W/m² | - |
| 1777799300 | 1.67° C | 99% | 1019.6 hPa | 0 mm | - | 0 W/m² | - |
| 1777798694 | 1.67° C | 99% | 1019.7 hPa | 0 mm | - | 0 W/m² | - |
| 1777798089 | 1.67° C | 99% | 1019.7 hPa | 0 mm | - | 0 W/m² | - |
| 1777797486 | 1.67° C | 99% | 1019.7 hPa | 0 mm | - | 0 W/m² | - |
| 1777796880 | 1.67° C | 99% | 1020 hPa | 0 mm | - | 0 W/m² | - |
| 1777796273 | 1.67° C | 99% | 1019.5 hPa | 0 mm | - | 0 W/m² | - |
| 1777795668 | 2.22° C | 99% | 1019.2 hPa | 0 mm | - | 0 W/m² | - |
* Rain latest hour (hover to see other rain measurements)
** Current wind speed in m/s (hover to see current wind gust speed)